AFR41CG EDDF-LFPG

Flight info

Callsign AFR41CG
Flight time 1h 9m
Altitude 24000
Route SOBRA2L/18 SOBRA Y180 DIK UN857 TOLVU/N0411F230 DCT RAPOR DCT VEDUS
Aircraft A320/M-SDE3FGHIRWY/LB1

Departure

Time 2026-05-04 17:56
Airport Frankfurt Main Airport (EDDF)

Arrival

Time 2026-05-04 19:05
Airport Charles de Gaulle International Airport (LFPG)
Time Latitude Longitude Altitude Speed Heading
2026-05-04 17:10 50.05182 8.59179 367 ft 0 kts 340°
2026-05-04 17:11 50.05189 8.59176 365 ft 0 kts 339°
2026-05-04 17:31 50.05188 8.59177 359 ft 2 kts 339°
2026-05-04 17:31 50.05114 8.59225 362 ft 4 kts 328°
2026-05-04 17:32 50.05072 8.59277 362 ft 4 kts 315°
2026-05-04 17:33 50.05002 8.59335 366 ft 4 kts 339°
2026-05-04 17:33 50.04987 8.59343 364 ft 0 kts 339°
2026-05-04 17:38 50.04989 8.59342 364 ft 1 kts 339°
2026-05-04 17:38 50.05006 8.59333 363 ft 4 kts 339°
2026-05-04 17:38 50.05035 8.59315 362 ft 6 kts 339°
2026-05-04 17:39 50.05073 8.59185 365 ft 10 kts 247°
2026-05-04 17:39 50.05049 8.59087 359 ft 9 kts 251°
2026-05-04 17:39 50.05029 8.59001 362 ft 8 kts 250°
2026-05-04 17:40 50.05013 8.58931 362 ft 6 kts 249°
2026-05-04 17:40 50.05001 8.58881 361 ft 0 kts 249°
2026-05-04 17:40 50.04999 8.58872 363 ft 2 kts 249°
2026-05-04 17:40 50.04994 8.58855 361 ft 2 kts 249°
2026-05-04 17:41 50.04992 8.58845 359 ft 0 kts 249°
2026-05-04 17:43 50.04992 8.58844 359 ft 1 kts 249°
2026-05-04 17:43 50.04981 8.58797 362 ft 5 kts 249°
2026-05-04 17:44 50.04970 8.58754 363 ft 4 kts 249°
2026-05-04 17:44 50.04962 8.58722 361 ft 3 kts 249°
2026-05-04 17:44 50.04954 8.58685 365 ft 6 kts 250°
2026-05-04 17:44 50.04931 8.58588 363 ft 13 kts 250°
2026-05-04 17:45 50.04894 8.58432 362 ft 18 kts 250°
2026-05-04 17:45 50.04860 8.58289 361 ft 13 kts 249°
2026-05-04 17:45 50.04827 8.58150 363 ft 13 kts 249°
2026-05-04 17:45 50.04799 8.58037 364 ft 9 kts 249°
2026-05-04 17:46 50.04763 8.57966 360 ft 9 kts 220°
2026-05-04 17:46 50.04711 8.57893 363 ft 11 kts 228°
2026-05-04 17:46 50.04676 8.57769 359 ft 14 kts 250°
2026-05-04 17:46 50.04637 8.57607 359 ft 18 kts 250°
2026-05-04 17:47 50.04591 8.57418 360 ft 20 kts 249°
2026-05-04 17:47 50.04542 8.57208 364 ft 21 kts 250°
2026-05-04 17:47 50.04488 8.56984 359 ft 23 kts 249°
2026-05-04 17:47 50.04433 8.56752 361 ft 24 kts 250°
2026-05-04 17:48 50.04374 8.56501 358 ft 24 kts 250°
2026-05-04 17:48 50.04316 8.56257 357 ft 24 kts 250°
2026-05-04 17:48 50.04276 8.56091 358 ft 25 kts 249°
2026-05-04 17:48 50.04190 8.55735 355 ft 27 kts 250°
2026-05-04 17:49 50.04123 8.55457 358 ft 27 kts 249°
2026-05-04 17:49 50.04059 8.55186 356 ft 27 kts 250°
2026-05-04 17:49 50.03995 8.54919 359 ft 26 kts 249°
2026-05-04 17:49 50.03929 8.54641 353 ft 28 kts 250°
2026-05-04 17:50 50.03863 8.54376 354 ft 23 kts 242°
2026-05-04 17:50 50.03784 8.54153 350 ft 24 kts 249°
2026-05-04 17:50 50.03725 8.53909 345 ft 22 kts 249°
2026-05-04 17:50 50.03671 8.53680 347 ft 21 kts 249°
2026-05-04 17:51 50.03623 8.53489 341 ft 20 kts 249°
2026-05-04 17:51 50.03571 8.53276 338 ft 22 kts 249°
2026-05-04 17:51 50.03517 8.53051 335 ft 23 kts 250°
2026-05-04 17:51 50.03459 8.52824 334 ft 17 kts 246°
2026-05-04 17:52 50.03434 8.52734 335 ft 0 kts 249°
2026-05-04 17:53 50.03424 8.52692 334 ft 9 kts 250°
2026-05-04 17:53 50.03403 8.52606 333 ft 6 kts 233°
2026-05-04 17:53 50.03372 8.52593 334 ft 4 kts 184°
2026-05-04 17:53 50.03359 8.52594 334 ft 0 kts 178°
2026-05-04 17:55 50.03347 8.52594 335 ft 9 kts 178°
2026-05-04 17:55 50.03063 8.52595 335 ft 79 kts 179°
2026-05-04 17:55 50.02291 8.52601 332 ft 141 kts 179°
2026-05-04 17:55 50.01148 8.52585 454 ft 178 kts 180°
2026-05-04 17:56 49.99896 8.52643 1110 ft 180 kts 179°
2026-05-04 17:56 49.98650 8.52715 1916 ft 178 kts 179°
2026-05-04 17:56 49.97376 8.52801 2459 ft 193 kts 178°
2026-05-04 17:56 49.95958 8.52898 2804 ft 215 kts 178°
2026-05-04 17:57 49.94390 8.53005 3279 ft 232 kts 178°
2026-05-04 17:57 49.92775 8.53117 4196 ft 232 kts 178°
2026-05-04 17:57 49.91164 8.53236 5131 ft 233 kts 177°
2026-05-04 17:57 49.89538 8.53378 6059 ft 233 kts 177°
2026-05-04 17:58 49.87926 8.53540 6976 ft 233 kts 177°
2026-05-04 17:58 49.86333 8.53718 7856 ft 233 kts 178°
2026-05-04 17:58 49.84642 8.53416 8301 ft 254 kts 199°
2026-05-04 17:58 49.82971 8.52295 8914 ft 267 kts 207°
2026-05-04 17:59 49.81309 8.50957 9765 ft 271 kts 208°
2026-05-04 17:59 49.79601 8.49618 10355 ft 285 kts 206°
2026-05-04 17:59 49.76444 8.45377 10892 ft 331 kts 244°
2026-05-04 18:00 49.76002 8.41847 11498 ft 344 kts 271°
2026-05-04 18:00 49.76458 8.38162 12239 ft 351 kts 281°
2026-05-04 18:00 49.77053 8.34483 13000 ft 355 kts 281°
2026-05-04 18:00 49.77654 8.30763 13752 ft 358 kts 281°
2026-05-04 18:01 49.78261 8.27007 14405 ft 362 kts 281°
2026-05-04 18:01 49.78870 8.23221 15046 ft 365 kts 281°
2026-05-04 18:01 49.79485 8.19384 15693 ft 369 kts 281°
2026-05-04 18:02 49.80734 8.11586 16961 ft 377 kts 281°
2026-05-04 18:02 49.81365 8.07630 17602 ft 380 kts 281°
2026-05-04 18:02 49.81785 8.04986 18033 ft 383 kts 281°
2026-05-04 18:02 49.82432 8.00917 18618 ft 386 kts 281°
2026-05-04 18:03 49.83073 7.96856 19161 ft 390 kts 281°
2026-05-04 18:03 49.83706 7.92822 19717 ft 393 kts 281°
2026-05-04 18:03 49.84353 7.88700 20281 ft 395 kts 281°
2026-05-04 18:03 49.85011 7.84487 20832 ft 399 kts 280°
2026-05-04 18:04 49.85660 7.80300 21364 ft 402 kts 280°
2026-05-04 18:04 49.86318 7.76061 21878 ft 404 kts 280°
2026-05-04 18:04 49.87656 7.67534 22888 ft 410 kts 281°
2026-05-04 18:05 49.88330 7.63223 23374 ft 413 kts 280°
2026-05-04 18:05 49.89003 7.58887 23800 ft 415 kts 280°
2026-05-04 18:05 49.89675 7.54522 23959 ft 416 kts 280°
2026-05-04 18:05 49.90351 7.50100 24000 ft 426 kts 280°
2026-05-04 18:06 49.91725 7.41099 24002 ft 430 kts 280°
2026-05-04 18:06 49.92412 7.36588 24005 ft 429 kts 280°
2026-05-04 18:06 49.93095 7.32090 24002 ft 429 kts 280°
2026-05-04 18:07 49.93778 7.27582 24003 ft 429 kts 280°
2026-05-04 18:07 49.94461 7.23066 24004 ft 429 kts 280°
2026-05-04 18:07 49.95141 7.18562 24001 ft 429 kts 280°
2026-05-04 18:07 49.95818 7.14061 24000 ft 428 kts 280°
2026-05-04 18:08 49.96493 7.09561 24004 ft 428 kts 280°
2026-05-04 18:08 49.97166 7.05070 24001 ft 427 kts 280°
2026-05-04 18:08 49.97837 7.00563 24000 ft 427 kts 280°
2026-05-04 18:08 49.98500 6.96086 23980 ft 427 kts 280°
2026-05-04 18:09 49.99230 6.87003 23972 ft 421 kts 265°
2026-05-04 18:09 49.98959 6.77912 23970 ft 421 kts 265°
2026-05-04 18:10 49.98824 6.73369 23969 ft 421 kts 265°
2026-05-04 18:10 49.98685 6.68767 23971 ft 421 kts 265°
2026-05-04 18:10 49.98547 6.64223 23968 ft 421 kts 265°
2026-05-04 18:10 49.98383 6.59694 23969 ft 420 kts 262°
2026-05-04 18:11 49.97853 6.55250 23967 ft 417 kts 252°
2026-05-04 18:11 49.96871 6.51033 23967 ft 415 kts 245°
2026-05-04 18:11 49.95710 6.46928 23970 ft 415 kts 245°
2026-05-04 18:11 49.94557 6.42827 23971 ft 415 kts 245°
2026-05-04 18:12 49.93405 6.38717 23973 ft 415 kts 245°
2026-05-04 18:12 49.92249 6.34613 23974 ft 415 kts 245°
2026-05-04 18:12 49.91078 6.30460 23979 ft 415 kts 245°
2026-05-04 18:12 49.89921 6.26364 23983 ft 414 kts 244°
2026-05-04 18:13 49.88734 6.22281 23987 ft 414 kts 244°
2026-05-04 18:13 49.87569 6.18207 23988 ft 414 kts 244°
2026-05-04 18:13 49.84911 6.10322 23990 ft 411 kts 233°
2026-05-04 18:14 49.83265 6.06712 23990 ft 411 kts 233°
2026-05-04 18:14 49.81608 6.03096 23993 ft 411 kts 233°
2026-05-04 18:14 49.79951 5.99495 23994 ft 411 kts 233°
2026-05-04 18:15 49.76629 5.92306 23995 ft 410 kts 233°
2026-05-04 18:15 49.73678 5.84759 23995 ft 413 kts 245°
2026-05-04 18:15 49.72703 5.80579 23997 ft 414 kts 248°
2026-05-04 18:16 49.71742 5.76389 23992 ft 414 kts 248°
2026-05-04 18:16 49.70768 5.72209 23997 ft 414 kts 248°
2026-05-04 18:16 49.69791 5.68032 24000 ft 414 kts 248°
2026-05-04 18:17 49.67828 5.59681 24002 ft 414 kts 248°
2026-05-04 18:17 49.66846 5.55510 24002 ft 414 kts 248°
2026-05-04 18:17 49.64880 5.47167 23997 ft 413 kts 248°
2026-05-04 18:18 49.63898 5.43006 24002 ft 413 kts 248°
2026-05-04 18:18 49.62915 5.38838 23998 ft 413 kts 248°
2026-05-04 18:18 49.61943 5.34663 23988 ft 413 kts 248°
2026-05-04 18:18 49.61018 5.30466 23982 ft 414 kts 249°
2026-05-04 18:19 49.59421 5.21945 23967 ft 417 kts 258°
2026-05-04 18:19 49.59185 5.17480 23961 ft 420 kts 267°
2026-05-04 18:19 49.59245 5.12969 23963 ft 421 kts 268°
2026-05-04 18:20 49.59296 5.08461 23959 ft 421 kts 268°
2026-05-04 18:20 49.59330 5.03950 23956 ft 422 kts 268°
2026-05-04 18:20 49.59353 4.99423 23957 ft 422 kts 268°
2026-05-04 18:20 49.59372 4.94904 23954 ft 422 kts 268°
2026-05-04 18:21 49.59390 4.90377 23957 ft 423 kts 268°
2026-05-04 18:21 49.59412 4.85849 23958 ft 423 kts 268°
2026-05-04 18:21 49.59437 4.81326 23957 ft 423 kts 268°
2026-05-04 18:21 49.59468 4.76784 23955 ft 423 kts 268°
2026-05-04 18:22 49.59501 4.72249 23956 ft 423 kts 268°
2026-05-04 18:22 49.59532 4.67709 23954 ft 424 kts 268°
2026-05-04 18:22 49.59556 4.63171 23951 ft 424 kts 268°
2026-05-04 18:22 49.59574 4.58631 23954 ft 424 kts 268°
2026-05-04 18:23 49.59590 4.54078 23954 ft 424 kts 268°
2026-05-04 18:23 49.59607 4.49527 23954 ft 425 kts 268°
2026-05-04 18:23 49.59626 4.44985 23940 ft 420 kts 269°
2026-05-04 18:23 49.59644 4.40561 23816 ft 404 kts 269°
2026-05-04 18:24 49.59656 4.36305 23553 ft 393 kts 269°
2026-05-04 18:24 49.59659 4.32128 23029 ft 388 kts 269°
2026-05-04 18:24 49.59662 4.28042 22484 ft 385 kts 269°
2026-05-04 18:24 49.59663 4.23934 21943 ft 382 kts 269°
2026-05-04 18:25 49.59662 4.19847 21405 ft 380 kts 269°
2026-05-04 18:25 49.59659 4.15789 20881 ft 378 kts 269°
2026-05-04 18:25 49.59654 4.11754 20363 ft 375 kts 268°
2026-05-04 18:25 49.59329 4.07790 19868 ft 372 kts 255°
2026-05-04 18:26 49.58456 4.04067 19371 ft 369 kts 243°
2026-05-04 18:26 49.57131 4.00696 18872 ft 367 kts 236°
2026-05-04 18:26 49.55739 3.97416 18387 ft 365 kts 237°
2026-05-04 18:26 49.54357 3.94147 17858 ft 363 kts 237°
2026-05-04 18:27 49.52967 3.90847 17328 ft 361 kts 237°
2026-05-04 18:27 49.51607 3.87613 16814 ft 359 kts 237°
2026-05-04 18:27 49.50251 3.84393 16300 ft 358 kts 237°
2026-05-04 18:27 49.48902 3.81188 15814 ft 356 kts 237°
2026-05-04 18:28 49.47666 3.77907 15341 ft 354 kts 246°
2026-05-04 18:28 49.46881 3.74331 14894 ft 352 kts 256°
2026-05-04 18:28 49.46290 3.70751 14765 ft 340 kts 256°
2026-05-04 18:28 49.45708 3.67291 14632 ft 329 kts 255°
2026-05-04 18:29 49.45140 3.63942 14471 ft 320 kts 255°
2026-05-04 18:29 49.44583 3.60656 14172 ft 317 kts 255°
2026-05-04 18:29 49.44028 3.57389 13861 ft 314 kts 255°
2026-05-04 18:29 49.43476 3.54155 13613 ft 311 kts 255°
2026-05-04 18:30 49.42380 3.47759 13088 ft 309 kts 255°
2026-05-04 18:30 49.41787 3.44598 12818 ft 307 kts 249°
2026-05-04 18:30 49.40986 3.41562 12558 ft 306 kts 248°
2026-05-04 18:31 49.40179 3.38543 12300 ft 305 kts 248°
2026-05-04 18:31 49.39374 3.35531 12042 ft 304 kts 248°
2026-05-04 18:31 49.38574 3.32538 11780 ft 303 kts 248°
2026-05-04 18:31 49.37774 3.29549 11532 ft 302 kts 248°
2026-05-04 18:32 49.36976 3.26574 11278 ft 301 kts 248°
2026-05-04 18:32 49.36182 3.23611 11041 ft 300 kts 248°
2026-05-04 18:32 49.35400 3.20697 10925 ft 299 kts 248°
2026-05-04 18:32 49.34596 3.17710 10943 ft 300 kts 247°
2026-05-04 18:33 49.33808 3.14795 10943 ft 300 kts 247°
2026-05-04 18:33 49.33008 3.11845 10943 ft 300 kts 247°
2026-05-04 18:33 49.32207 3.08901 10945 ft 300 kts 247°
2026-05-04 18:33 49.31406 3.05951 10942 ft 300 kts 247°
2026-05-04 18:34 49.30605 3.02993 10940 ft 300 kts 247°
2026-05-04 18:34 49.29805 3.00042 10939 ft 300 kts 247°
2026-05-04 18:34 49.29004 2.97085 10943 ft 301 kts 247°
2026-05-04 18:34 49.28200 2.94126 10949 ft 301 kts 247°
2026-05-04 18:35 49.27396 2.91172 10947 ft 301 kts 247°
2026-05-04 18:35 49.26590 2.88219 10949 ft 300 kts 247°
2026-05-04 18:35 49.25787 2.85271 10946 ft 300 kts 247°
2026-05-04 18:35 49.24982 2.82321 10948 ft 300 kts 247°
2026-05-04 18:36 49.24176 2.79374 10941 ft 300 kts 247°
2026-05-04 18:36 49.23368 2.76431 10947 ft 300 kts 247°
2026-05-04 18:36 49.22558 2.73489 10947 ft 300 kts 247°
2026-05-04 18:36 49.21746 2.70545 10951 ft 300 kts 247°
2026-05-04 18:37 49.20934 2.67614 10953 ft 300 kts 246°
2026-05-04 18:37 49.20118 2.64672 10941 ft 300 kts 246°
2026-05-04 18:37 49.19305 2.61731 10948 ft 300 kts 247°
2026-05-04 18:37 49.18519 2.58781 10942 ft 300 kts 251°
2026-05-04 18:38 49.18079 2.55668 10863 ft 302 kts 265°
2026-05-04 18:38 49.18004 2.52493 10619 ft 299 kts 269°
2026-05-04 18:38 49.17947 2.49326 10376 ft 298 kts 268°
2026-05-04 18:38 49.17879 2.46164 10134 ft 297 kts 268°
2026-05-04 18:39 49.17806 2.43021 9924 ft 296 kts 268°
2026-05-04 18:39 49.17757 2.40933 9714 ft 296 kts 268°
2026-05-04 18:39 49.17684 2.37788 9285 ft 295 kts 268°
2026-05-04 18:39 49.17625 2.34660 8885 ft 294 kts 269°
2026-05-04 18:40 49.17590 2.31562 8637 ft 290 kts 269°
2026-05-04 18:40 49.17307 2.28527 8441 ft 289 kts 251°
2026-05-04 18:40 49.16595 2.25655 8237 ft 289 kts 248°
2026-05-04 18:40 49.15832 2.22826 8016 ft 288 kts 247°
2026-05-04 18:41 49.15061 2.20002 7790 ft 287 kts 247°
2026-05-04 18:41 49.14293 2.17193 7556 ft 286 kts 247°
2026-05-04 18:41 49.13527 2.14394 7345 ft 285 kts 247°
2026-05-04 18:41 49.12630 2.11712 7094 ft 283 kts 231°
2026-05-04 18:42 49.11128 2.09849 6844 ft 279 kts 203°
2026-05-04 18:42 49.09256 2.09218 6607 ft 276 kts 180°
2026-05-04 18:42 49.07354 2.09215 6366 ft 270 kts 177°
2026-05-04 18:42 49.05503 2.09277 6106 ft 262 kts 177°
2026-05-04 18:43 49.03707 2.09346 5849 ft 255 kts 177°
2026-05-04 18:43 49.01957 2.09442 5592 ft 248 kts 172°
2026-05-04 18:43 49.00325 2.10101 5339 ft 239 kts 153°
2026-05-04 18:43 48.98948 2.11448 5099 ft 235 kts 136°
2026-05-04 18:44 48.97914 2.13348 5000 ft 233 kts 118°
2026-05-04 18:44 48.97459 2.14822 5001 ft 232 kts 107°
2026-05-04 18:44 48.97151 2.18047 5006 ft 231 kts 85°
2026-05-04 18:44 48.97286 2.20496 4943 ft 232 kts 84°
2026-05-04 18:45 48.97427 2.22913 4694 ft 228 kts 84°
2026-05-04 18:45 48.97564 2.25304 4397 ft 226 kts 84°
2026-05-04 18:45 48.97698 2.27682 4088 ft 225 kts 84°
2026-05-04 18:45 48.97831 2.30038 3793 ft 223 kts 84°
2026-05-04 18:46 48.97961 2.32363 3490 ft 217 kts 84°
2026-05-04 18:46 48.98086 2.34600 3215 ft 207 kts 84°
2026-05-04 18:46 48.98204 2.36716 2970 ft 194 kts 84°
2026-05-04 18:46 48.98314 2.38698 2682 ft 179 kts 84°
2026-05-04 18:47 48.98412 2.40476 2455 ft 161 kts 84°
2026-05-04 18:47 48.98504 2.42134 2252 ft 152 kts 84°
2026-05-04 18:47 48.98588 2.43706 2036 ft 147 kts 84°
2026-05-04 18:47 48.98660 2.45262 1833 ft 146 kts 85°
2026-05-04 18:48 48.98744 2.46784 1666 ft 143 kts 83°
2026-05-04 18:48 48.98841 2.48293 1482 ft 144 kts 84°
2026-05-04 18:48 48.98921 2.49826 1269 ft 147 kts 84°
2026-05-04 18:48 48.99009 2.51380 1052 ft 147 kts 84°
2026-05-04 18:49 48.99097 2.52919 849 ft 146 kts 84°
2026-05-04 18:49 48.99181 2.54457 666 ft 145 kts 83°
2026-05-04 18:49 48.99263 2.55976 472 ft 144 kts 84°
2026-05-04 18:49 48.99343 2.57466 358 ft 130 kts 85°
2026-05-04 18:50 48.99408 2.58941 546 ft 157 kts 86°
2026-05-04 18:50 48.99460 2.60682 1253 ft 168 kts 87°
2026-05-04 18:50 48.99516 2.62442 2176 ft 167 kts 86°
2026-05-04 18:50 48.99540 2.64287 2505 ft 185 kts 97°
2026-05-04 18:51 48.98934 2.66096 2661 ft 205 kts 135°
2026-05-04 18:51 48.97616 2.67064 2983 ft 219 kts 173°
2026-05-04 18:51 48.96098 2.66842 3603 ft 221 kts 192°
2026-05-04 18:51 48.94603 2.66241 4249 ft 223 kts 199°
2026-05-04 18:52 48.93336 2.64907 4824 ft 228 kts 231°
2026-05-04 18:52 48.92662 2.62745 4972 ft 228 kts 256°
2026-05-04 18:52 48.92349 2.60383 5002 ft 227 kts 261°
2026-05-04 18:52 48.92092 2.58012 5006 ft 227 kts 261°
2026-05-04 18:53 48.91844 2.55638 5006 ft 227 kts 261°
2026-05-04 18:53 48.91595 2.53262 5010 ft 227 kts 261°
2026-05-04 18:53 48.91347 2.50886 5005 ft 230 kts 261°
2026-05-04 18:53 48.91169 2.48464 5008 ft 231 kts 266°
2026-05-04 18:54 48.91069 2.46021 5009 ft 232 kts 267°
2026-05-04 18:54 48.90979 2.43580 5007 ft 232 kts 267°
2026-05-04 18:54 48.90889 2.41126 5009 ft 232 kts 267°
2026-05-04 18:54 48.90801 2.38681 5005 ft 232 kts 267°
2026-05-04 18:55 48.90711 2.36233 5009 ft 232 kts 267°
2026-05-04 18:55 48.90532 2.31343 5008 ft 232 kts 267°
2026-05-04 18:55 48.90439 2.28899 5005 ft 232 kts 267°
2026-05-04 18:56 48.90346 2.26453 5005 ft 232 kts 267°
2026-05-04 18:56 48.90253 2.24012 5007 ft 232 kts 267°
2026-05-04 18:56 48.90159 2.21564 5012 ft 231 kts 267°
2026-05-04 18:56 48.90071 2.19132 5003 ft 227 kts 270°
2026-05-04 18:57 48.90413 2.16927 5008 ft 207 kts 304°
2026-05-04 18:57 48.91435 2.15594 5019 ft 195 kts 340°
2026-05-04 18:57 48.92740 2.15139 5009 ft 192 kts 358°
2026-05-04 18:57 48.94054 2.15306 5003 ft 190 kts 15°
2026-05-04 18:58 48.95268 2.16062 5004 ft 189 kts 32°
2026-05-04 18:58 48.96271 2.17330 5003 ft 188 kts 49°
2026-05-04 18:58 48.96982 2.19017 5001 ft 188 kts 66°
2026-05-04 18:58 48.97314 2.20909 4900 ft 189 kts 84°
2026-05-04 18:59 48.97426 2.22925 4688 ft 188 kts 84°
2026-05-04 18:59 48.97540 2.24906 4425 ft 187 kts 84°
2026-05-04 18:59 48.97650 2.26847 4200 ft 186 kts 84°
2026-05-04 18:59 48.97763 2.28836 3944 ft 186 kts 84°
2026-05-04 19:00 48.97873 2.30794 3692 ft 185 kts 84°
2026-05-04 19:00 48.97982 2.32751 3448 ft 185 kts 84°
2026-05-04 19:00 48.98091 2.34686 3200 ft 181 kts 84°
2026-05-04 19:00 48.98196 2.36573 2958 ft 177 kts 84°
2026-05-04 19:01 48.98297 2.38391 2722 ft 167 kts 84°
2026-05-04 19:01 48.98390 2.40088 2514 ft 154 kts 84°
2026-05-04 19:01 48.98476 2.41641 2318 ft 143 kts 84°
2026-05-04 19:01 48.98558 2.43127 2127 ft 139 kts 84°
2026-05-04 19:02 48.98638 2.44576 1954 ft 136 kts 84°
2026-05-04 19:02 48.98715 2.46002 1795 ft 136 kts 84°
2026-05-04 19:02 48.98793 2.47447 1618 ft 138 kts 84°
2026-05-04 19:02 48.98880 2.48908 1418 ft 140 kts 84°
2026-05-04 19:03 48.98964 2.50387 1201 ft 140 kts 85°
2026-05-04 19:03 48.99033 2.51867 984 ft 140 kts 85°
2026-05-04 19:03 48.99113 2.53327 812 ft 136 kts 83°
2026-05-04 19:03 48.99202 2.54751 633 ft 134 kts 85°
2026-05-04 19:04 48.99276 2.56164 465 ft 135 kts 84°
2026-05-04 19:04 48.99345 2.57567 356 ft 124 kts 85°
2026-05-04 19:04 48.99407 2.58681 352 ft 86 kts 86°
2026-05-04 19:04 48.99454 2.59509 352 ft 71 kts 84°
2026-05-04 19:05 48.99480 2.60027 354 ft 22 kts 89°
2026-05-04 19:05 48.99519 2.60201 358 ft 14 kts 17°
2026-05-04 19:05 48.99600 2.60199 356 ft 9 kts 345°
2026-05-04 19:05 48.99655 2.60180 353 ft 7 kts 350°
2026-05-04 19:06 48.99701 2.60177 359 ft 6 kts 360°
2026-05-04 19:06 48.99736 2.60175 354 ft 4 kts 351°
2026-05-04 19:06 48.99755 2.60170 356 ft 2 kts 351°
2026-05-04 19:06 48.99773 2.60166 354 ft 4 kts 354°
2026-05-04 19:07 48.99806 2.60162 354 ft 6 kts 354°
2026-05-04 19:07 48.99859 2.60167 361 ft 8 kts 28°
2026-05-04 19:07 48.99901 2.60221 354 ft 8 kts 38°
2026-05-04 19:07 48.99945 2.60239 354 ft 6 kts 355°
2026-05-04 19:08 48.99983 2.60234 361 ft 5 kts 355°
2026-05-04 19:08 49.00013 2.60231 360 ft 4 kts 355°
2026-05-04 19:08 49.00061 2.60225 354 ft 9 kts 355°
2026-05-04 19:08 49.00113 2.60168 356 ft 11 kts 281°
2026-05-04 19:09 49.00105 2.60042 354 ft 14 kts 265°
2026-05-04 19:09 49.00096 2.59875 354 ft 18 kts 265°
2026-05-04 19:09 49.00083 2.59670 360 ft 21 kts 265°
2026-05-04 19:09 49.00076 2.59429 356 ft 24 kts 268°
2026-05-04 19:10 49.00058 2.59164 359 ft 25 kts 266°
2026-05-04 19:10 49.00044 2.58898 359 ft 26 kts 265°
2026-05-04 19:10 49.00031 2.58641 354 ft 23 kts 264°
2026-05-04 19:10 49.00020 2.58447 354 ft 12 kts 265°
2026-05-04 19:11 49.00034 2.58335 360 ft 10 kts 316°
2026-05-04 19:11 49.00101 2.58317 358 ft 10 kts 355°
2026-05-04 19:11 49.00170 2.58308 353 ft 10 kts 355°
2026-05-04 19:11 49.00234 2.58300 353 ft 9 kts 355°
2026-05-04 19:12 49.00265 2.58296 360 ft 4 kts 355°
2026-05-04 19:12 49.00287 2.58327 356 ft 2 kts 79°
2026-05-04 19:12 49.00289 2.58368 360 ft 5 kts 86°
2026-05-04 19:13 49.00290 2.58386 360 ft 0 kts 86°
2026-05-04 19:13 49.00291 2.58396 359 ft 1 kts 85°
2026-05-04 19:13 49.00291 2.58408 356 ft 1 kts 85°
2026-05-04 19:13 49.00291 2.58410 356 ft 0 kts 85°